[[{"header":{"parameterUnit":"m.s-1","parameterCategory":2,"la1":30.2991,"la2":30.254,"lo1":-89.0895,"lo2":-89.0444,"dy":0.0017,"dx":0.0017,"nx":28,"ny":28,"refTime":"2024-04-29T09:00:00:Z","depth":"0","parameterNumber":2,"parameterNumberName":"U-component_of_CURRENTS"},"data":[0,0,0,0,0,0,0,0,0,0,0,0,0,0,0,0,0,0,0,0,0,0,0,0,0,0,0,0,0,0,0,0,0,0,0,0,0,0,0,0,0,0,0,0,0,0,0,0,0,0,0,0,0,0,0,0,0,0,-0.203,-0.2031,0,-0.21,-0.21,-0.2101,-0.2076,-0.2075,-0.2073,-0.2072,-0.2094,-0.2096,-0.2098,0,0,0,0,0,0,0,0,0,0,0,0,0,-0.1921,-0.1923,-0.203,-0.2031,-0.2032,-0.21,-0.21,-0.2101,-0.2076,-0.2075,-0.2073,-0.2072,-0.2093,-0.2096,-0.2098,0,0,0,0,0,0,0,0,0,0,0,0,0,-0.1976,-0.1923,-0.203,-0.2029,-0.203,-0.21,-0.21,-0.2101,-0.2077,-0.2075,-0.2073,-0.2071,-0.2093,-0.2095,-0.2098,-0.2157,0,0,-0.2107,-0.2108,0,0,0,0,0,0,0,0,-0.1973,-0.1979,-0.2028,-0.2029,-0.203,-0.2079,-0.207,-0.2118,-0.2077,-0.2057,-0.2072,-0.207,-0.2087,-0.209,-0.2106,-0.2158,-0.2159,-0.2107,-0.2109,-0.211,-0.2111,0,0,0,0,0,0,0,-0.1969,-0.1977,-0.2056,-0.203,-0.2031,-0.2041,-0.2046,-0.2079,-0.2081,-0.2059,-0.2058,-0.2069,-0.2087,-0.2104,-0.2106,-0.216,-0.2107,-0.2109,-0.2111,-0.2112,-0.2247,-0.2249,0,0,0,0,0,0,-0.1964,-0.1973,-0.2054,-0.2058,-0.1998,-0.2045,-0.205,-0.2064,-0.2081,-0.2083,-0.2071,-0.2068,-0.21,-0.2103,-0.2107,-0.2157,-0.211,-0.2112,-0.2114,-0.2245,-0.2247,-0.2249,0,0,0,0,0,0,-0.1962,-0.1971,-0.2051,-0.2018,-0.2029,-0.2049,-0.2065,-0.2066,-0.2077,-0.2091,-0.2091,-0.2078,-0.2098,-0.2103,-0.2145,-0.2158,-0.2114,-0.2116,-0.2243,-0.2246,-0.2248,-0.227,0,0,0,0,0,0,-0.1958,-0.197,-0.1982,-0.2018,-0.2031,-0.2102,-0.2067,-0.2069,-0.2088,-0.2085,-0.2099,-0.2098,-0.2097,-0.2141,-0.2148,-0.2161,-0.2119,-0.224,-0.2244,-0.2247,-0.2267,-0.2274,-0.2279,0,0,0,0,0,-0.1954,-0.1987,-0.1982,-0.1992,-0.2046,-0.2104,-0.2112,-0.2117,-0.2091,-0.2114,-0.2119,-0.2098,-0.2168,-0.2146,-0.2153,-0.2167,-0.2239,-0.2243,-0.2247,-0.2265,-0.2272,-0.2279,0,0,0,0,0,0,-0.1947,-0.1989,-0.1984,-0.2027,-0.2063,-0.21,-0.2126,-0.2123,-0.2147,-0.2138,-0.2132,-0.2135,-0.2176,-0.2181,-0.2156,-0.2219,-0.2197,-0.2203,-0.2207,-0.2215,-0.2221,-0.2202,-0.2121,0,0,0,0,0,-0.1952,-0.1984,-0.2023,-0.2056,-0.2077,-0.2099,-0.2121,-0.2127,-0.2152,-0.2159,-0.2169,-0.2182,-0.2205,-0.2214,-0.2243,-0.2285,-0.2246,-0.2297,-0.2303,-0.2308,-0.23,-0.2239,-0.2236,-0.2263,-0.2263,-0.2263,0,0,-0.1956,-0.1985,-0.2001,-0.2057,-0.2082,-0.213,-0.2107,-0.215,-0.2179,-0.2161,-0.2204,-0.2211,-0.2224,-0.2266,-0.2283,-0.2266,-0.2288,-0.2313,-0.2317,-0.2306,-0.2243,-0.2239,-0.2236,-0.2266,-0.2266,-0.2265,0,0,-0.1992,-0.2009,-0.205,-0.2088,-0.2137,-0.2157,-0.2169,-0.2212,-0.2217,-0.2271,-0.2253,-0.2262,-0.232,-0.2311,-0.2317,-0.2376,-0.2326,-0.2394,-0.24,-0.2341,-0.2337,-0.2333,-0.2301,-0.2294,-0.2389,-0.2389,-0.2389,0,-0.1991,-0.2046,-0.2072,-0.2127,-0.2153,-0.2169,-0.2214,-0.2243,-0.229,-0.2284,-0.2291,-0.2321,-0.2335,-0.234,-0.2366,-0.2384,-0.2352,-0.2367,-0.2343,-0.2338,-0.2333,-0.2301,-0.2293,-0.2391,-0.2391,-0.2391,-0.2391,0,-0.2066,-0.2104,-0.2136,-0.22,-0.2236,-0.2282,-0.2319,-0.2343,-0.2347,-0.2355,-0.2367,-0.2382,-0.2378,-0.2397,-0.2408,-0.2386,-0.2377,-0.2357,-0.2312,-0.2331,-0.2298,-0.2288,-0.2393,-0.2393,-0.2392,-0.2392,0,0,-0.2061,-0.2165,-0.2171,-0.219,-0.2271,-0.2296,-0.2351,-0.238,-0.2371,-0.2413,-0.2393,-0.2438,-0.2406,-0.2411,-0.2405,-0.2372,-0.2329,-0.2358,-0.2354,-0.2305,-0.2212,-0.2205,-0.2194,-0.2295,-0.2293,-0.2291,-0.2209,0,-0.21,-0.2188,-0.2237,-0.2297,-0.2333,-0.2361,-0.2398,-0.2419,-0.2429,-0.2423,-0.2408,-0.2405,-0.2422,-0.2405,-0.2377,-0.2342,-0.2303,-0.2354,-0.2221,-0.2218,-0.2189,-0.2182,-0.2164,-0.2088,-0.22,-0.2198,-0.2197,0,-0.2146,-0.2193,-0.2261,-0.2303,-0.2319,-0.2356,-0.2362,-0.24,-0.2402,-0.2402,-0.2384,-0.2375,-0.235,-0.2352,-0.2276,-0.2306,-0.2263,-0.2235,-0.2229,-0.2202,-0.2192,-0.2086,-0.2066,-0.2077,-0.2182,-0.2183,-0.2184,0,-0.2098,-0.2192,-0.2229,-0.2257,-0.2328,-0.2334,-0.2357,-0.2376,-0.2378,-0.237,-0.2356,-0.2327,-0.2298,-0.2244,-0.2217,-0.2231,-0.2124,-0.2122,-0.2072,-0.2072,-0.202,-0.2018,-0.197,-0.2041,-0.2041,-0.2042,-0.2042,0,-0.2106,-0.2127,-0.2202,-0.2221,-0.2226,-0.2288,-0.228,-0.23,-0.2314,-0.2302,-0.2321,-0.2298,-0.2266,-0.2218,-0.2188,-0.2108,-0.2089,-0.2066,-0.204,-0.2034,-0.2035,-0.2012,-0.2023,-0.2038,-0.2039,-0.204,-0.204,0,-0.2042,-0.211,-0.2134,-0.2195,-0.2205,-0.2197,-0.2231,-0.2229,-0.2255,-0.2239,-0.2235,-0.2249,-0.2197,-0.2167,-0.2081,-0.206,-0.1966,-0.1962,-0.198,-0.1959,-0.193,-0.1943,-0.1833,-0.1777,-0.1885,-0.1885,-0.1884,0,-0.2018,-0.2031,-0.2079,-0.2084,-0.2109,-0.2116,-0.2128,-0.2178,-0.2185,-0.2208,-0.2194,-0.2165,-0.2143,-0.2043,-0.1995,-0.192,-0.1909,-0.1859,-0.1879,-0.1918,-0.1913,-0.1914,-0.1874,-0.1828,-0.1827,-0.1826,-0.1826,0,-0.1947,-0.1962,-0.1984,-0.1988,-0.2001,-0.201,-0.2034,-0.2035,-0.2096,-0.2101,-0.2109,-0.21,-0.2048,-0.1992,-0.1917,-0.1861,-0.1843,-0.1838,-0.1851,-0.1841,-0.1861,-0.1799,-0.1921,-0.1818,-0.1818,-0.1819,-0.1819,-0.182,-0.1869,-0.1855,-0.1878,-0.1871,-0.1892,-0.1892,-0.186,-0.1916,-0.1918,-0.1921,-0.1993,-0.1983,-0.2007,-0.191,-0.1856,-0.179,-0.1764,-0.1757,-0.1763,-0.1757,-0.1719,-0.1845,-0.1732,-0.1733,-0.1733,-0.1733,-0.1733,0,-0.1759,-0.1762,-0.1758,-0.1752,-0.1731,-0.1773,-0.1784,-0.1747,-0.1731,-0.1805,-0.1815,-0.1893,-0.187,-0.1874,-0.1841,-0.1765,-0.1702,-0.1706,-0.1707,-0.166,-0.1744,-0.1762,-0.1684,-0.1684,-0.1684,-0.1684,-0.1684,-0.1684,-0.1704,-0.1663,-0.1663,-0.1586,-0.1583,-0.1508,-0.1489,-0.1474,-0.1499,-0.1523,-0.1601,-0.1691,-0.1752,-0.1942,-0.1888,-0.1794,-0.1718,-0.1666,-0.1631,-0.1731,-0.1737,-0.1743,-0.1762,-0.1685,-0.1685,-0.1522,-0.1521,-0.152]},{"header":{"parameterUnit":"m.s-1","parameterCategory":2,"la1":30.2991,"la2":30.254,"lo1":-89.0895,"lo2":-89.0444,"dy":0.0017,"dx":0.0017,"nx":28,"ny":28,"refTime":"2024-04-29T09:00:00:Z","depth":"0","parameterNumber":3,"parameterNumberName":"V-component_of_CURRENTS"},"data":[0,0,0,0,0,0,0,0,0,0,0,0,0,0,0,0,0,0,0,0,0,0,0,0,0,0,0,0,0,0,0,0,0,0,0,0,0,0,0,0,0,0,0,0,0,0,0,0,0,0,0,0,0,0,0,0,0,0,-0.015,-0.015,0,-0.0077,-0.0076,-0.0075,-0.0025,-0.0025,-0.0025,-0.0024,0.0098,0.0101,0.0104,0,0,0,0,0,0,0,0,0,0,0,0,0,-0.0198,-0.0198,-0.015,-0.015,-0.0149,-0.0077,-0.0076,-0.0075,-0.0025,-0.0025,-0.0025,-0.0024,0.0097,0.01,0.0104,0,0,0,0,0,0,0,0,0,0,0,0,0,-0.0155,-0.0197,-0.015,-0.0116,-0.0112,-0.0078,-0.0076,-0.0075,-0.0025,-0.0025,-0.0024,-0.0024,0.0096,0.01,0.0104,0.0124,0,0,0.0118,0.012,0,0,0,0,0,0,0,0,-0.0158,-0.0154,-0.0122,-0.0118,-0.0114,-0.0061,-0.0048,-0.0006,-0.0025,-0.0057,-0.0024,-0.0024,0.0048,0.0057,0.007,0.013,0.0135,0.0119,0.0121,0.0123,0.0125,0,0,0,0,0,0,0,-0.0161,-0.0156,-0.012,-0.0121,-0.0116,-0.0088,-0.0082,-0.004,-0.0006,-0.0054,-0.0051,-0.0045,0.0051,0.0066,0.0074,0.0137,0.0118,0.0122,0.0125,0.0127,0.0262,0.0263,0,0,0,0,0,0,-0.0175,-0.0159,-0.0122,-0.0118,-0.0137,-0.0088,-0.0081,-0.0077,-0.0007,0.0003,-0.0045,-0.0043,0.0058,0.0068,0.0078,0.0132,0.0123,0.0127,0.013,0.0261,0.0262,0.0263,0,0,0,0,0,0,-0.0177,-0.0173,-0.0125,-0.0138,-0.013,-0.0088,-0.0084,-0.0076,-0.0062,-0.0001,0.0011,-0.0039,0.0059,0.0072,0.0114,0.0136,0.0129,0.0134,0.026,0.0262,0.0263,0.0224,0,0,0,0,0,0,-0.0179,-0.0174,-0.0179,-0.0139,-0.013,-0.0113,-0.0084,-0.0075,-0.0059,-0.0055,0.0008,0.002,0.006,0.0107,0.0118,0.0143,0.0137,0.0259,0.0261,0.0262,0.0224,0.0223,0.0223,0,0,0,0,0,-0.0181,-0.0193,-0.018,-0.0175,-0.0137,-0.0114,-0.0106,-0.0074,-0.006,-0.0058,-0.0013,0.0018,0.0126,0.011,0.0124,0.015,0.0258,0.026,0.0262,0.0224,0.0224,0.0223,0,0,0,0,0,0,-0.0215,-0.0187,-0.0172,-0.0175,-0.0149,-0.0106,-0.0104,-0.008,-0.0043,-0.0039,0.002,0.0035,0.0084,0.0119,0.01,0.0196,0.0201,0.0206,0.0168,0.0168,0.0167,0.0154,0.0141,0,0,0,0,0,-0.0226,-0.0228,-0.0193,-0.0195,-0.0186,-0.0145,-0.0133,-0.011,-0.0072,-0.0056,-0.0011,0.0045,0.0104,0.0134,0.0182,0.0226,0.025,0.0256,0.0255,0.0255,0.0254,0.0299,0.0302,0.027,0.027,0.027,0,0,-0.0241,-0.0226,-0.0227,-0.0203,-0.0181,-0.0167,-0.0137,-0.0123,-0.01,-0.0048,-0.0009,0.004,0.0113,0.0167,0.0194,0.0199,0.0277,0.0257,0.0256,0.0256,0.0301,0.0304,0.0307,0.0271,0.0271,0.0271,0,0,-0.0278,-0.0258,-0.0275,-0.0253,-0.0226,-0.0193,-0.0192,-0.0151,-0.0122,-0.0083,-0.0028,0.0029,0.0102,0.0167,0.021,0.0236,0.027,0.0256,0.0249,0.0292,0.0295,0.0297,0.0326,0.0331,0.026,0.026,0.026,0,-0.0297,-0.0307,-0.0275,-0.0278,-0.0258,-0.0207,-0.0207,-0.0167,-0.0115,-0.0084,-0.0078,0.0051,0.0108,0.0198,0.0212,0.0237,0.0255,0.0242,0.0289,0.0293,0.0296,0.0325,0.0331,0.0259,0.0259,0.0259,0.0259,0,-0.0343,-0.0343,-0.0349,-0.0329,-0.0301,-0.0295,-0.0233,-0.0202,-0.016,-0.0113,-0.0035,0.004,0.0118,0.0154,0.0193,0.026,0.0263,0.0277,0.0283,0.0296,0.0327,0.0334,0.0256,0.0257,0.0257,0.0258,0,0,-0.0401,-0.0387,-0.0386,-0.0379,-0.0326,-0.0306,-0.026,-0.0198,-0.0164,-0.0101,-0.0051,0.006,0.0097,0.0149,0.0211,0.0256,0.0298,0.0272,0.0275,0.0287,0.0378,0.0417,0.0428,0.0312,0.0313,0.0314,0.0386,0,-0.0445,-0.0469,-0.0435,-0.0427,-0.0427,-0.035,-0.0309,-0.0239,-0.0174,-0.0115,-0.0015,0.005,0.0099,0.0133,0.019,0.0275,0.0317,0.0277,0.0375,0.0378,0.0401,0.0439,0.0493,0.0565,0.0394,0.0395,0.0396,0,-0.0498,-0.0503,-0.052,-0.0472,-0.0462,-0.0439,-0.0352,-0.031,-0.0201,-0.0152,-0.0066,0.0005,0.011,0.0129,0.0273,0.0241,0.0303,0.036,0.0364,0.042,0.0432,0.0529,0.0586,0.0729,0.0407,0.0406,0.0406,0,-0.0561,-0.0551,-0.0564,-0.0551,-0.0495,-0.0471,-0.0428,-0.0328,-0.0284,-0.0181,-0.0143,-0.0016,0.0047,0.0145,0.028,0.027,0.042,0.0421,0.0515,0.0518,0.0596,0.0604,0.0795,0.0506,0.0506,0.0506,0.0505,0,-0.0619,-0.0623,-0.0599,-0.0606,-0.0599,-0.0531,-0.05,-0.0437,-0.0347,-0.0292,-0.0176,-0.0104,0.005,0.0165,0.0269,0.0426,0.0415,0.0524,0.0548,0.0584,0.059,0.0743,0.0785,0.0508,0.0508,0.0507,0.0507,0,-0.0683,-0.0674,-0.0686,-0.0649,-0.0637,-0.063,-0.0562,-0.0532,-0.0443,-0.037,-0.034,-0.0169,-0.0009,0.0148,0.0322,0.0417,0.0646,0.0606,0.0634,0.066,0.0873,0.0909,0.1092,0.1167,0.0718,0.072,0.0721,0,-0.0719,-0.074,-0.0732,-0.0742,-0.0729,-0.0709,-0.0691,-0.0598,-0.0555,-0.0398,-0.0363,-0.019,-0.0036,0.024,0.0443,0.0641,0.0726,0.078,0.0781,0.0911,0.0968,0.0984,0.1034,0.0866,0.0868,0.087,0.0872,0,-0.0778,-0.0779,-0.0792,-0.0822,-0.0819,-0.0805,-0.0766,-0.0744,-0.0619,-0.0531,-0.0373,-0.0237,0.0066,0.0355,0.0611,0.0721,0.0896,0.0825,0.0967,0.1114,0.1138,0.1211,0.0776,0.0889,0.0887,0.0886,0.0885,0.0884,-0.0816,-0.0843,-0.0867,-0.0888,-0.0894,-0.0885,-0.0862,-0.0792,-0.071,-0.0531,-0.0399,-0.0153,0.0277,0.0675,0.0814,0.1123,0.1054,0.1201,0.1235,0.1241,0.1322,0.0917,0.1049,0.1049,0.1048,0.1047,0.1047,0,-0.0858,-0.0888,-0.0923,-0.0947,-0.0965,-0.0945,-0.0893,-0.0833,-0.0723,-0.0525,-0.0337,0.015,0.0569,0.0936,0.1388,0.1539,0.1561,0.1595,0.165,0.1681,0.1348,0.1366,0.1564,0.1564,0.1564,0.1564,0.1564,0.1563,-0.088,-0.0932,-0.0951,-0.0998,-0.1012,-0.0993,-0.0958,-0.0836,-0.0676,-0.033,-0.0038,0.0198,0.0724,0.15,0.1917,0.193,0.2058,0.2026,0.2082,0.1876,0.1842,0.1809,0.184,0.2135,0.2135,0.2422,0.2425,0.2428]}],[{"header":{"parameterUnit":"m.s-1","parameterCategory":2,"la1":30.2991,"la2":30.254,"lo1":-89.0895,"lo2":-89.0444,"dy":0.0017,"dx":0.0017,"nx":28,"ny":28,"refTime":"2024-04-29T09:00:00:Z","depth":"2","parameterNumber":2,"parameterNumberName":"U-component_of_CURRENTS"},"data":[0,0,0,0,0,0,0,0,0,0,0,0,0,0,0,0,0,0,0,0,0,0,0,0,0,0,0,0,0,0,0,0,0,0,0,0,0,0,0,0,0,0,0,0,0,0,0,0,0,0,0,0,0,0,0,0,0,0,-0.1933,-0.1934,0,-0.1997,-0.1998,-0.1999,-0.1976,-0.1975,-0.1974,-0.1973,-0.1994,-0.1996,-0.1998,0,0,0,0,0,0,0,0,0,0,0,0,0,-0.1833,-0.1834,-0.1933,-0.1934,-0.1935,-0.1997,-0.1998,-0.1999,-0.1977,-0.1975,-0.1974,-0.1972,-0.1994,-0.1996,-0.1998,0,0,0,0,0,0,0,0,0,0,0,0,0,-0.1883,-0.1835,-0.1933,-0.1933,-0.1933,-0.1997,-0.1998,-0.1999,-0.1977,-0.1975,-0.1973,-0.1972,-0.1993,-0.1995,-0.1998,-0.2052,0,0,-0.2006,-0.2007,0,0,0,0,0,0,0,0,-0.188,-0.1886,-0.1932,-0.1933,-0.1934,-0.1978,-0.1971,-0.2015,-0.1978,-0.1959,-0.1973,-0.1971,-0.1988,-0.1991,-0.2005,-0.2053,-0.2054,-0.2006,-0.2008,-0.2009,-0.201,0,0,0,0,0,0,0,-0.1877,-0.1884,-0.1957,-0.1933,-0.1934,-0.1944,-0.1948,-0.1979,-0.1981,-0.196,-0.1959,-0.197,-0.1987,-0.2002,-0.2005,-0.2054,-0.2006,-0.2008,-0.201,-0.2011,-0.2137,-0.2138,0,0,0,0,0,0,-0.1873,-0.1881,-0.1955,-0.1959,-0.1904,-0.1947,-0.1952,-0.1965,-0.1981,-0.1983,-0.1971,-0.1969,-0.1999,-0.2002,-0.2006,-0.2055,-0.2009,-0.2011,-0.2013,-0.2135,-0.2137,-0.2139,0,0,0,0,0,0,-0.187,-0.1879,-0.1952,-0.1922,-0.1932,-0.1951,-0.1965,-0.1967,-0.1978,-0.1991,-0.199,-0.198,-0.1998,-0.2002,-0.2041,-0.2056,-0.2013,-0.2015,-0.2133,-0.2136,-0.2138,-0.2164,0,0,0,0,0,0,-0.1867,-0.1877,-0.1889,-0.1922,-0.1934,-0.1999,-0.1967,-0.197,-0.1989,-0.1985,-0.1999,-0.1998,-0.1996,-0.2037,-0.2044,-0.2059,-0.2017,-0.2131,-0.2134,-0.2137,-0.2161,-0.2167,-0.2172,0,0,0,0,0,-0.1863,-0.1894,-0.1889,-0.1898,-0.1948,-0.2001,-0.2009,-0.2013,-0.1991,-0.2012,-0.2017,-0.1998,-0.2062,-0.2042,-0.2049,-0.2064,-0.2129,-0.2133,-0.2137,-0.2158,-0.2166,-0.2172,0,0,0,0,0,0,-0.1857,-0.1896,-0.1891,-0.193,-0.1964,-0.1998,-0.2022,-0.202,-0.2043,-0.2035,-0.2029,-0.2032,-0.2072,-0.2075,-0.2051,-0.2113,-0.209,-0.2096,-0.2104,-0.2111,-0.2117,-0.2099,-0.2019,0,0,0,0,0,-0.1861,-0.189,-0.1927,-0.1958,-0.1977,-0.1998,-0.2018,-0.2025,-0.2048,-0.2055,-0.2064,-0.2076,-0.2098,-0.2107,-0.2134,-0.2173,-0.2135,-0.2187,-0.2193,-0.2198,-0.219,-0.2131,-0.2129,-0.2152,-0.2152,-0.2152,0,0,-0.1865,-0.1892,-0.1906,-0.1958,-0.1981,-0.2026,-0.2005,-0.2047,-0.2074,-0.2057,-0.2097,-0.2105,-0.2117,-0.2157,-0.2174,-0.2156,-0.2179,-0.2203,-0.2206,-0.2196,-0.2134,-0.2131,-0.2129,-0.2155,-0.2154,-0.2154,0,0,-0.1898,-0.1914,-0.1952,-0.1987,-0.2033,-0.2052,-0.2064,-0.2104,-0.211,-0.2161,-0.2145,-0.2155,-0.2209,-0.2201,-0.2207,-0.2264,-0.2217,-0.2282,-0.2289,-0.2232,-0.2228,-0.2225,-0.2194,-0.2187,-0.2277,-0.2278,-0.2278,0,-0.1897,-0.1947,-0.1972,-0.2022,-0.2046,-0.2063,-0.2104,-0.2133,-0.2177,-0.2173,-0.218,-0.2211,-0.2224,-0.2231,-0.2256,-0.2272,-0.2241,-0.2257,-0.2235,-0.223,-0.2225,-0.2195,-0.2187,-0.2279,-0.2279,-0.2279,-0.2279,0,-0.1964,-0.1999,-0.2029,-0.2087,-0.2121,-0.2164,-0.22,-0.2224,-0.2231,-0.224,-0.2255,-0.227,-0.2268,-0.2288,-0.2297,-0.2278,-0.2269,-0.2249,-0.2205,-0.2223,-0.2192,-0.2183,-0.2282,-0.2281,-0.2281,-0.228,0,0,-0.1959,-0.2053,-0.206,-0.2076,-0.2152,-0.2176,-0.2229,-0.2257,-0.2252,-0.2294,-0.2278,-0.2324,-0.2297,-0.2302,-0.2298,-0.2265,-0.2226,-0.2252,-0.2248,-0.2202,-0.2115,-0.2105,-0.2094,-0.2193,-0.2191,-0.219,-0.2112,0,-0.1993,-0.2072,-0.2118,-0.2172,-0.2205,-0.2233,-0.2269,-0.2292,-0.2305,-0.2301,-0.2293,-0.2293,-0.2312,-0.2299,-0.2272,-0.2238,-0.2201,-0.225,-0.2121,-0.2118,-0.2089,-0.2083,-0.194,-0.1857,-0.2103,-0.2101,-0.21,0,-0.2034,-0.2076,-0.2137,-0.2176,-0.2191,-0.2227,-0.2237,-0.2274,-0.228,-0.2283,-0.2272,-0.2266,-0.2245,-0.2248,-0.2177,-0.2206,-0.2165,-0.2136,-0.2131,-0.2101,-0.209,-0.1877,-0.1831,-0.2084,-0.2085,-0.2087,-0.2088,0,-0.1988,-0.2073,-0.2107,-0.2132,-0.2199,-0.2207,-0.2231,-0.2253,-0.2257,-0.2254,-0.2244,-0.222,-0.2196,-0.2145,-0.212,-0.2133,-0.2031,-0.2028,-0.1979,-0.1979,-0.182,-0.1809,-0.1951,-0.1951,-0.1951,-0.1952,-0.1952,0,-0.1992,-0.2011,-0.2083,-0.2099,-0.2106,-0.2166,-0.2162,-0.2183,-0.22,-0.2191,-0.2213,-0.2194,-0.2166,-0.2121,-0.2092,-0.2015,-0.1998,-0.1973,-0.1947,-0.1833,-0.1824,-0.1991,-0.1996,-0.1949,-0.1949,-0.195,-0.195,0,-0.1931,-0.1994,-0.2017,-0.2076,-0.2086,-0.2082,-0.2118,-0.2118,-0.2147,-0.2134,-0.2133,-0.2149,-0.2101,-0.2073,-0.199,-0.1968,-0.1901,-0.1873,-0.1765,-0.173,-0.1896,-0.1905,-0.1799,-0.1798,-0.1797,-0.1796,-0.1795,0,-0.1907,-0.1919,-0.1966,-0.1972,-0.1997,-0.2008,-0.2021,-0.2072,-0.208,-0.2105,-0.2093,-0.2068,-0.2044,-0.1947,-0.1874,-0.1795,-0.185,-0.164,-0.1642,-0.1889,-0.1875,-0.1886,-0.1895,-0.1446,-0.1442,-0.144,-0.1437,0,-0.1838,-0.1855,-0.1875,-0.1882,-0.1898,-0.1906,-0.1932,-0.1934,-0.1996,-0.1999,-0.2007,-0.1996,-0.1923,-0.1788,-0.1703,-0.1639,-0.1649,-0.1582,-0.1809,-0.1532,-0.1556,-0.1544,-0.1564,-0.1412,-0.1414,-0.1416,-0.1417,-0.1418,-0.1764,-0.1752,-0.1775,-0.177,-0.1793,-0.1794,-0.1764,-0.1802,-0.18,-0.1764,-0.1855,-0.1771,-0.1754,-0.1542,-0.1468,-0.139,-0.1497,-0.1431,-0.1439,-0.145,-0.1448,-0.1471,-0.1311,-0.1313,-0.1315,-0.1316,-0.1318,0,-0.1653,-0.1662,-0.166,-0.1656,-0.1628,-0.1681,-0.1691,-0.1621,-0.1579,-0.1582,-0.1558,-0.1387,-0.132,-0.1296,-0.1147,-0.1144,-0.1112,-0.1098,-0.1055,-0.1081,-0.1104,-0.1085,-0.0851,-0.085,-0.0849,-0.0848,0,0,-0.1598,-0.1555,-0.1555,-0.1478,-0.1483,-0.1391,-0.1373,-0.1297,-0.1252,-0.114,-0.1096,-0.118,-0.1245,-0.1033,-0.1002,-0.0906,-0.0974,-0.0855,-0.1225,-0.1198,-0.1219,-0.1291,-0.129,0,0,0,0,0]},{"header":{"parameterUnit":"m.s-1","parameterCategory":2,"la1":30.2991,"la2":30.254,"lo1":-89.0895,"lo2":-89.0444,"dy":0.0017,"dx":0.0017,"nx":28,"ny":28,"refTime":"2024-04-29T09:00:00:Z","depth":"2","parameterNumber":3,"parameterNumberName":"V-component_of_CURRENTS"},"data":[0,0,0,0,0,0,0,0,0,0,0,0,0,0,0,0,0,0,0,0,0,0,0,0,0,0,0,0,0,0,0,0,0,0,0,0,0,0,0,0,0,0,0,0,0,0,0,0,0,0,0,0,0,0,0,0,0,0,-0.0195,-0.0194,0,-0.0126,-0.0125,-0.0124,-0.0071,-0.0071,-0.0071,-0.007,0.0048,0.0051,0.0054,0,0,0,0,0,0,0,0,0,0,0,0,0,-0.0236,-0.0235,-0.0195,-0.0194,-0.0193,-0.0126,-0.0125,-0.0124,-0.0072,-0.0071,-0.0071,-0.007,0.0047,0.0051,0.0054,0,0,0,0,0,0,0,0,0,0,0,0,0,-0.0197,-0.0235,-0.0195,-0.016,-0.0156,-0.0126,-0.0125,-0.0124,-0.0072,-0.0071,-0.007,-0.007,0.0046,0.005,0.0055,0.0069,0,0,0.0067,0.0069,0,0,0,0,0,0,0,0,-0.0199,-0.0195,-0.0166,-0.0162,-0.0158,-0.0108,-0.0096,-0.0057,-0.0072,-0.0102,-0.007,-0.007,-0.0,0.0008,0.002,0.0074,0.0079,0.0068,0.007,0.0072,0.0073,0,0,0,0,0,0,0,-0.0202,-0.0197,-0.0166,-0.0165,-0.016,-0.0132,-0.0126,-0.0088,-0.0054,-0.01,-0.0096,-0.009,0.0002,0.0016,0.0024,0.0081,0.0068,0.0071,0.0074,0.0076,0.0195,0.0196,0,0,0,0,0,0,-0.0216,-0.02,-0.0168,-0.0164,-0.0179,-0.0132,-0.0126,-0.0123,-0.0055,-0.0045,-0.0091,-0.0088,0.0009,0.0019,0.0028,0.0077,0.0072,0.0076,0.0078,0.0194,0.0195,0.0196,0,0,0,0,0,0,-0.0217,-0.0214,-0.0171,-0.0181,-0.0174,-0.0133,-0.013,-0.0122,-0.0108,-0.0049,-0.0038,-0.0085,0.0009,0.0022,0.006,0.0081,0.0078,0.0082,0.0194,0.0195,0.0196,0.0157,0,0,0,0,0,0,-0.0218,-0.0215,-0.022,-0.0183,-0.0174,-0.0162,-0.0131,-0.0122,-0.0106,-0.0102,-0.004,-0.0029,0.0011,0.0053,0.0064,0.0087,0.0085,0.0193,0.0194,0.0195,0.0158,0.0157,0.0156,0,0,0,0,0,-0.022,-0.0234,-0.022,-0.0217,-0.0182,-0.0163,-0.0156,-0.0123,-0.0107,-0.0107,-0.0062,-0.0031,0.007,0.0056,0.0069,0.0094,0.0192,0.0194,0.0195,0.0158,0.0157,0.0156,0,0,0,0,0,0,-0.0254,-0.0229,-0.0213,-0.0218,-0.0195,-0.0154,-0.0153,-0.0129,-0.0095,-0.0089,-0.0031,-0.0017,0.0029,0.0062,0.0046,0.0133,0.014,0.0144,0.0108,0.0107,0.0106,0.0095,0.0088,0,0,0,0,0,-0.0265,-0.0269,-0.0236,-0.0241,-0.0232,-0.0193,-0.0182,-0.0159,-0.0124,-0.0108,-0.0064,-0.001,0.0045,0.0073,0.0118,0.0157,0.0183,0.0185,0.0184,0.0183,0.0183,0.0229,0.0232,0.0201,0.0201,0.0201,0,0,-0.028,-0.0267,-0.0269,-0.0248,-0.0227,-0.0218,-0.0185,-0.0174,-0.0154,-0.01,-0.0065,-0.0017,0.0053,0.0102,0.0126,0.0132,0.0205,0.0185,0.0183,0.0185,0.0231,0.0234,0.0236,0.0202,0.0202,0.0201,0,0,-0.0319,-0.03,-0.0319,-0.03,-0.0276,-0.0244,-0.0244,-0.0206,-0.0177,-0.0143,-0.0088,-0.0033,0.0035,0.0098,0.0138,0.0159,0.0196,0.0178,0.017,0.0214,0.0217,0.0219,0.025,0.0255,0.0181,0.0181,0.0181,0,-0.0338,-0.0351,-0.0321,-0.0327,-0.0309,-0.0259,-0.0262,-0.0225,-0.0177,-0.0146,-0.0139,-0.0015,0.0039,0.0125,0.0137,0.0159,0.018,0.0166,0.0211,0.0215,0.0218,0.0249,0.0256,0.0179,0.018,0.018,0.018,0,-0.0388,-0.039,-0.0398,-0.0383,-0.0358,-0.0355,-0.0297,-0.0268,-0.0227,-0.0181,-0.0104,-0.0032,0.0045,0.0078,0.0116,0.0181,0.0186,0.0199,0.0208,0.0218,0.0251,0.0258,0.0177,0.0178,0.0178,0.0178,0,0,-0.0447,-0.0438,-0.0438,-0.0432,-0.0385,-0.0368,-0.0327,-0.027,-0.0235,-0.0176,-0.0125,-0.002,0.0021,0.007,0.0131,0.0177,0.022,0.0193,0.0196,0.0213,0.0304,0.034,0.0352,0.0235,0.0237,0.0238,0.0314,0,-0.0493,-0.0522,-0.0491,-0.0488,-0.0491,-0.0417,-0.038,-0.0314,-0.025,-0.0191,-0.0093,-0.0028,0.002,0.0057,0.0112,0.0197,0.024,0.0198,0.0301,0.0304,0.0327,0.0363,0.029,0.0355,0.0322,0.0323,0.0324,0,-0.0549,-0.0557,-0.0578,-0.0534,-0.0525,-0.0505,-0.0421,-0.0383,-0.0276,-0.0227,-0.0141,-0.0069,0.0034,0.0054,0.0199,0.0166,0.0229,0.0286,0.029,0.0344,0.0356,0.0343,0.0371,0.0337,0.0336,0.0335,0.0334,0,-0.061,-0.0605,-0.0621,-0.061,-0.0559,-0.0536,-0.0496,-0.0399,-0.0355,-0.0252,-0.0213,-0.0087,-0.0022,0.0076,0.021,0.0199,0.0351,0.0352,0.0444,0.0446,0.0417,0.0416,0.0438,0.0438,0.0438,0.0438,0.0437,0,-0.0669,-0.0675,-0.0653,-0.0662,-0.0656,-0.0593,-0.0561,-0.05,-0.0412,-0.0356,-0.0242,-0.017,-0.0016,0.0098,0.02,0.0357,0.0348,0.0453,0.0477,0.0402,0.0399,0.0409,0.0405,0.044,0.044,0.0439,0.0439,0,-0.0731,-0.0725,-0.0738,-0.0704,-0.0693,-0.0686,-0.0619,-0.0589,-0.0501,-0.0428,-0.0397,-0.0229,-0.0069,0.0086,0.0259,0.0352,0.0487,0.0538,0.0439,0.0451,0.0549,0.0542,0.0646,0.0648,0.065,0.0651,0.0652,0,-0.0766,-0.0788,-0.0782,-0.0792,-0.078,-0.0759,-0.0742,-0.0651,-0.0608,-0.0453,-0.0418,-0.0245,-0.0096,0.0177,0.0347,0.0535,0.0543,0.058,0.0561,0.0562,0.0575,0.0565,0.0555,0.0498,0.0498,0.0498,0.0498,0,-0.0824,-0.0825,-0.0838,-0.0868,-0.0864,-0.0851,-0.0812,-0.079,-0.0667,-0.0581,-0.0426,-0.0295,-0.0023,0.0184,0.0425,0.0519,0.0546,0.0586,0.0621,0.0464,0.0432,0.0441,0.0435,0.0497,0.0497,0.0497,0.0497,0.0497,-0.086,-0.0886,-0.091,-0.093,-0.0935,-0.0927,-0.0904,-0.084,-0.0761,-0.0608,-0.0472,-0.0275,-0.0051,0.0277,0.045,0.0584,0.0596,0.0612,0.0608,0.0606,0.0583,0.0557,0.0639,0.064,0.0641,0.0642,0.0642,0,-0.09,-0.0929,-0.0963,-0.0986,-0.1003,-0.0984,-0.0933,-0.0885,-0.0786,-0.065,-0.0487,-0.0254,-0.0005,0.0218,0.0432,0.0596,0.0557,0.0609,0.052,0.0519,0.0519,0.0489,0.0522,0.0522,0.0523,0.0523,0,0,-0.0921,-0.0971,-0.099,-0.1035,-0.1048,-0.1035,-0.1001,-0.0911,-0.0802,-0.0655,-0.052,-0.0316,-0.0026,0.011,0.0304,0.0415,0.0419,0.0411,0.0484,0.0352,0.035,0.0493,0.0443,0,0,0,0,0]}],[{"header":{"parameterUnit":"m.s-1","parameterCategory":2,"la1":30.2991,"la2":30.254,"lo1":-89.0895,"lo2":-89.0444,"dy":0.0017,"dx":0.0017,"nx":28,"ny":28,"refTime":"2024-04-29T09:00:00:Z","depth":"4","parameterNumber":2,"parameterNumberName":"U-component_of_CURRENTS"},"data":[0,0,0,0,0,0,0,0,0,0,0,0,0,0,0,0,0,0,0,0,0,0,0,0,0,0,0,0,0,0,0,0,0,0,0,0,0,0,0,0,0,0,0,0,0,0,0,0,0,0,0,0,0,0,0,0,0,0,-0.1187,-0.1187,0,-0.1242,-0.1243,-0.1244,-0.126,-0.1259,-0.1259,-0.1259,-0.1268,-0.1269,-0.1269,0,0,0,0,0,0,0,0,0,0,0,0,0,-0.1132,-0.1133,-0.1187,-0.1187,-0.1188,-0.1242,-0.1243,-0.1244,-0.126,-0.1259,-0.1259,-0.1259,-0.1268,-0.1269,-0.127,0,0,0,0,0,0,0,0,0,0,0,0,0,-0.1169,-0.1133,-0.1187,-0.1203,-0.1205,-0.1242,-0.1243,-0.1244,-0.126,-0.1259,-0.1259,-0.1259,-0.1268,-0.1269,-0.127,-0.1283,0,0,-0.1272,-0.1272,0,0,0,0,0,0,0,0,-0.1166,-0.117,-0.12,-0.1202,-0.1204,-0.1244,-0.1228,-0.1255,-0.126,-0.1239,-0.1259,-0.1258,-0.1256,-0.1258,-0.127,-0.1283,-0.1284,-0.1272,-0.1273,-0.1273,-0.1273,0,0,0,0,0,0,0,-0.1164,-0.1168,-0.1209,-0.12,-0.1203,-0.122,-0.1225,-0.1233,-0.1248,-0.1241,-0.1242,-0.1249,-0.1257,-0.1269,-0.127,-0.1284,-0.1272,-0.1273,-0.1273,-0.1274,-0.1333,-0.1334,0,0,0,0,0,0,-0.1156,-0.1166,-0.1207,-0.121,-0.1184,-0.1221,-0.1226,-0.1231,-0.1249,-0.1252,-0.1249,-0.1249,-0.1268,-0.1269,-0.127,-0.1315,-0.1273,-0.1274,-0.1274,-0.1332,-0.1334,-0.1335,0,0,0,0,0,0,-0.1155,-0.1159,-0.1205,-0.119,-0.1197,-0.1223,-0.1228,-0.1233,-0.1263,-0.1256,-0.1258,-0.1276,-0.1268,-0.1269,-0.13,-0.1314,-0.1274,-0.1275,-0.1331,-0.1333,-0.1334,-0.1386,0,0,0,0,0,0,-0.1153,-0.1158,-0.117,-0.1189,-0.1197,-0.1242,-0.1229,-0.1234,-0.1266,-0.1268,-0.128,-0.1279,-0.1268,-0.1299,-0.1301,-0.1315,-0.1275,-0.1329,-0.1332,-0.1334,-0.1383,-0.1389,-0.1395,0,0,0,0,0,-0.1151,-0.1168,-0.117,-0.1176,-0.1209,-0.1243,-0.125,-0.1267,-0.1268,-0.129,-0.13,-0.128,-0.1313,-0.1302,-0.1303,-0.1317,-0.1328,-0.1331,-0.1333,-0.138,-0.1388,-0.1395,0,0,0,0,0,0,-0.1153,-0.1172,-0.1174,-0.1197,-0.1224,-0.1246,-0.1271,-0.1282,-0.1309,-0.1315,-0.1303,-0.1304,-0.1331,-0.1324,-0.1311,-0.134,-0.1314,-0.1317,-0.1349,-0.1356,-0.1362,-0.1353,-0.1276,0,0,0,0,0,-0.1158,-0.1174,-0.1197,-0.1217,-0.1232,-0.1256,-0.1276,-0.1291,-0.1312,-0.1325,-0.1336,-0.1341,-0.1341,-0.135,-0.1353,-0.138,-0.1358,-0.1387,-0.1393,-0.1398,-0.1392,-0.1382,-0.1386,-0.1343,-0.1343,-0.1343,0,0,-0.1163,-0.1176,-0.1186,-0.1219,-0.124,-0.1265,-0.1268,-0.1309,-0.1324,-0.1321,-0.1357,-0.1367,-0.1353,-0.1377,-0.1388,-0.1375,-0.1401,-0.1401,-0.1406,-0.1397,-0.1385,-0.1388,-0.1392,-0.1345,-0.1344,-0.1344,0,0,-0.1179,-0.1197,-0.1216,-0.1242,-0.1281,-0.1294,-0.131,-0.1351,-0.1364,-0.1403,-0.1395,-0.1419,-0.1436,-0.1427,-0.1419,-0.1462,-0.1432,-0.1468,-0.1493,-0.1483,-0.1486,-0.1489,-0.1473,-0.1474,-0.1472,-0.1472,-0.1472,0,-0.1185,-0.1206,-0.123,-0.1257,-0.1275,-0.1306,-0.1331,-0.1351,-0.1398,-0.1408,-0.142,-0.1448,-0.1449,-0.1448,-0.147,-0.1472,-0.1465,-0.1466,-0.149,-0.1492,-0.1493,-0.1477,-0.1476,-0.1475,-0.1475,-0.1474,-0.1474,0,-0.1209,-0.1235,-0.1253,-0.1285,-0.1312,-0.1345,-0.1369,-0.1402,-0.1424,-0.1442,-0.1472,-0.1485,-0.1499,-0.1506,-0.1504,-0.1517,-0.1508,-0.1497,-0.1469,-0.15,-0.1481,-0.148,-0.1479,-0.1478,-0.1477,-0.1476,0,0,-0.1186,-0.1254,-0.126,-0.1279,-0.1329,-0.1351,-0.1378,-0.1405,-0.1426,-0.1469,-0.1489,-0.1507,-0.1533,-0.1527,-0.1532,-0.1534,-0.155,-0.1534,-0.1532,-0.1513,-0.1532,-0.1442,-0.1432,-0.1551,-0.1551,-0.1551,-0.1517,0,-0.1193,-0.1239,-0.1273,-0.1313,-0.1334,-0.137,-0.1394,-0.1426,-0.1455,-0.1491,-0.1497,-0.1528,-0.1531,-0.1559,-0.1559,-0.1555,-0.1549,-0.156,-0.1508,-0.1506,-0.1418,-0.1428,-0.1551,-0.1516,-0.1515,-0.1515,-0.1515,0,-0.119,-0.1221,-0.1263,-0.1319,-0.1334,-0.1369,-0.1408,-0.1438,-0.1481,-0.151,-0.1538,-0.1556,-0.1571,-0.1574,-0.1559,-0.1572,-0.1559,-0.1547,-0.1545,-0.1437,-0.1413,-0.1476,-0.1512,-0.1512,-0.1513,-0.1513,-0.1513,0,-0.1134,-0.1207,-0.1236,-0.1258,-0.133,-0.1358,-0.1399,-0.1449,-0.1474,-0.1532,-0.1561,-0.1577,-0.1594,-0.1579,-0.1564,-0.1573,-0.1536,-0.1537,-0.1432,-0.1425,-0.1494,-0.1492,-0.1514,-0.1514,-0.1514,-0.1514,-0.1514,0,-0.11,-0.1128,-0.1224,-0.1237,-0.128,-0.1346,-0.1394,-0.1436,-0.1501,-0.1526,-0.1577,-0.1584,-0.1601,-0.1583,-0.1565,-0.1485,-0.153,-0.1427,-0.1406,-0.1519,-0.152,-0.1493,-0.1492,-0.1513,-0.1513,-0.1513,-0.1514,0,-0.1023,-0.1089,-0.1128,-0.122,-0.1254,-0.1285,-0.1386,-0.142,-0.1495,-0.1527,-0.1548,-0.1591,-0.1566,-0.1554,-0.1525,-0.1471,-0.1416,-0.1376,-0.1493,-0.1481,-0.1315,-0.1316,-0.1254,-0.125,-0.1247,-0.1245,-0.1243,0,-0.0981,-0.0996,-0.1097,-0.113,-0.1178,-0.1248,-0.1296,-0.1397,-0.1428,-0.1507,-0.1506,-0.1522,-0.1529,-0.1402,-0.1413,-0.1346,-0.133,-0.1298,-0.1309,-0.1299,-0.1286,-0.1293,-0.1298,-0.1238,-0.1237,-0.1236,-0.1236,0,-0.0893,-0.0943,-0.0979,-0.1048,-0.1111,-0.1163,-0.124,-0.1254,-0.1358,-0.1439,-0.1421,-0.1402,-0.1366,-0.133,-0.1284,-0.1241,-0.132,-0.1267,-0.1273,-0.1283,-0.1279,-0.1271,-0.128,-0.1225,-0.1227,-0.1228,-0.1228,0,-0.0826,-0.0833,-0.0897,-0.0947,-0.1023,-0.1055,-0.1111,-0.1155,-0.1199,-0.1301,-0.1287,-0.1304,-0.135,-0.1274,-0.1232,-0.118,-0.1164,-0.1131,-0.1144,-0.1156,-0.1138,-0.112,-0.0989,0,0,0,0,0,-0.0749,-0.0753,-0.0794,-0.0843,-0.0918,-0.0958,-0.106,-0.1123,-0.1225,-0.1181,-0.1234,-0.1198,-0.1149,-0.1161,-0.1082,-0.1173,-0.116,-0.1078,-0.1128,-0.1167,-0.1179,-0.1167,0,0,0,0,0,0,-0.0699,-0.0727,-0.0751,-0.0749,-0.0765,-0.083,-0.089,-0.0967,-0.0954,-0.1059,-0.1034,-0.1115,-0.1075,-0.1155,-0.1047,-0.1049,-0.1056,-0.11,-0.1097,-0.116,-0.1171,-0.1181,-0.1172,0,0,0,0,0]},{"header":{"parameterUnit":"m.s-1","parameterCategory":2,"la1":30.2991,"la2":30.254,"lo1":-89.0895,"lo2":-89.0444,"dy":0.0017,"dx":0.0017,"nx":28,"ny":28,"refTime":"2024-04-29T09:00:00:Z","depth":"4","parameterNumber":3,"parameterNumberName":"V-component_of_CURRENTS"},"data":[0,0,0,0,0,0,0,0,0,0,0,0,0,0,0,0,0,0,0,0,0,0,0,0,0,0,0,0,0,0,0,0,0,0,0,0,0,0,0,0,0,0,0,0,0,0,0,0,0,0,0,0,0,0,0,0,0,0,-0.0222,-0.0222,0,-0.0193,-0.0192,-0.0192,-0.0141,-0.014,-0.0139,-0.0139,-0.0075,-0.0074,-0.0073,0,0,0,0,0,0,0,0,0,0,0,0,0,-0.0217,-0.0217,-0.0222,-0.0222,-0.0222,-0.0193,-0.0192,-0.0192,-0.0141,-0.014,-0.0139,-0.0138,-0.0075,-0.0074,-0.0073,0,0,0,0,0,0,0,0,0,0,0,0,0,-0.0206,-0.0218,-0.0222,-0.0194,-0.0191,-0.0193,-0.0192,-0.0192,-0.0141,-0.014,-0.0139,-0.0138,-0.0075,-0.0074,-0.0073,-0.009,0,0,-0.0069,-0.0068,0,0,0,0,0,0,0,0,-0.0206,-0.0206,-0.0198,-0.0196,-0.0193,-0.017,-0.0167,-0.0156,-0.0142,-0.0159,-0.0139,-0.0137,-0.0105,-0.0101,-0.0098,-0.0087,-0.0084,-0.0069,-0.0068,-0.0067,-0.0067,0,0,0,0,0,0,0,-0.0207,-0.0207,-0.0209,-0.0198,-0.0195,-0.0177,-0.0174,-0.0165,-0.0138,-0.0157,-0.0154,-0.0153,-0.0103,-0.0099,-0.0096,-0.0083,-0.0069,-0.0067,-0.0067,-0.0066,-0.0072,-0.0073,0,0,0,0,0,0,-0.0216,-0.0208,-0.021,-0.0209,-0.0198,-0.0178,-0.0174,-0.0178,-0.0139,-0.0132,-0.0154,-0.0151,-0.0102,-0.0097,-0.0093,-0.01,-0.0067,-0.0066,-0.0065,-0.0071,-0.0072,-0.0073,0,0,0,0,0,0,-0.0216,-0.0216,-0.0212,-0.0208,-0.0206,-0.018,-0.0184,-0.0178,-0.0171,-0.0137,-0.0129,-0.0153,-0.0101,-0.0095,-0.0089,-0.0097,-0.0065,-0.0064,-0.007,-0.0071,-0.0072,-0.0121,0,0,0,0,0,0,-0.0216,-0.0217,-0.0225,-0.0209,-0.0207,-0.0221,-0.0185,-0.0178,-0.0173,-0.0168,-0.0134,-0.0126,-0.0099,-0.0091,-0.0087,-0.0095,-0.0063,-0.0068,-0.007,-0.0072,-0.0118,-0.0124,-0.0129,0,0,0,0,0,-0.0216,-0.0238,-0.0226,-0.0226,-0.0218,-0.0222,-0.022,-0.0195,-0.0175,-0.0182,-0.0155,-0.0127,-0.01,-0.0091,-0.0086,-0.0094,-0.0068,-0.007,-0.0072,-0.0116,-0.0123,-0.0129,0,0,0,0,0,0,-0.024,-0.0235,-0.0221,-0.024,-0.0233,-0.0214,-0.0221,-0.0202,-0.0188,-0.0181,-0.0141,-0.0134,-0.0131,-0.0112,-0.0103,-0.0102,-0.0079,-0.008,-0.0114,-0.012,-0.0125,-0.0116,-0.0062,0,0,0,0,0,-0.025,-0.0265,-0.0252,-0.0267,-0.0267,-0.0244,-0.0243,-0.0226,-0.0211,-0.0202,-0.0178,-0.0154,-0.0139,-0.0129,-0.0116,-0.0118,-0.0073,-0.012,-0.0125,-0.013,-0.0121,-0.0055,-0.0053,-0.008,-0.008,-0.008,0,0,-0.0264,-0.0263,-0.0271,-0.0273,-0.0265,-0.0277,-0.024,-0.0245,-0.025,-0.02,-0.0202,-0.0176,-0.0146,-0.0145,-0.0142,-0.0127,-0.0104,-0.0133,-0.0137,-0.0124,-0.0057,-0.0054,-0.0051,-0.0082,-0.0081,-0.0081,0,0,-0.0305,-0.0298,-0.0325,-0.0322,-0.0318,-0.0306,-0.031,-0.0295,-0.0283,-0.0287,-0.0247,-0.0223,-0.0213,-0.0181,-0.0166,-0.0195,-0.0137,-0.0198,-0.0211,-0.0148,-0.0145,-0.0141,-0.0098,-0.009,-0.0196,-0.0196,-0.0196,0,-0.0321,-0.0347,-0.0333,-0.0354,-0.0353,-0.0323,-0.0343,-0.0336,-0.032,-0.0304,-0.0298,-0.0249,-0.0228,-0.0198,-0.0207,-0.0205,-0.0163,-0.0188,-0.0152,-0.0148,-0.0143,-0.01,-0.009,-0.0199,-0.0198,-0.0198,-0.0198,0,-0.0379,-0.0394,-0.041,-0.0423,-0.0423,-0.0436,-0.042,-0.0414,-0.0396,-0.0375,-0.0347,-0.0311,-0.0268,-0.0268,-0.0248,-0.0206,-0.0187,-0.0168,-0.0131,-0.0143,-0.0097,-0.0086,-0.0202,-0.0202,-0.0201,-0.02,0,0,-0.0425,-0.0447,-0.0451,-0.0455,-0.0456,-0.0458,-0.0467,-0.0454,-0.0434,-0.042,-0.0385,-0.0365,-0.0318,-0.0297,-0.0259,-0.0211,-0.0154,-0.0178,-0.0173,-0.0127,-0.0021,-0.0047,-0.0037,-0.0121,-0.0119,-0.0117,-0.0009,0,-0.047,-0.0521,-0.0516,-0.0545,-0.0562,-0.0528,-0.0531,-0.0509,-0.0478,-0.0439,-0.0388,-0.0349,-0.0337,-0.0301,-0.0255,-0.0171,-0.0124,-0.0186,-0.0024,-0.002,-0.0033,-0.0025,-0.0111,-0.0001,0.0002,0.0004,0.0005,0,-0.0526,-0.0547,-0.0593,-0.0585,-0.0587,-0.0598,-0.0562,-0.0558,-0.0497,-0.0464,-0.0407,-0.0355,-0.0284,-0.0269,-0.0136,-0.0172,-0.0102,-0.0046,-0.0039,-0.0033,-0.0024,0.0017,0.0026,0.0024,0.0023,0.0021,0.002,0,-0.0561,-0.0591,-0.0626,-0.0629,-0.0628,-0.0627,-0.0616,-0.0568,-0.0544,-0.0466,-0.0425,-0.0337,-0.0277,-0.0182,-0.008,-0.0092,0.007,0.0073,0.0111,0.011,0.0124,0.0119,0.0172,0.0172,0.0172,0.0172,0.0171,0,-0.0603,-0.0626,-0.0645,-0.0663,-0.0679,-0.0657,-0.0647,-0.0615,-0.0552,-0.0513,-0.0434,-0.0373,-0.0247,-0.0145,-0.0062,0.0055,0.0089,0.0117,0.0143,0.0096,0.0087,0.0131,0.0125,0.0176,0.0175,0.0174,0.0173,0,-0.0631,-0.0653,-0.0686,-0.0697,-0.0702,-0.0708,-0.0681,-0.0659,-0.0597,-0.0535,-0.0508,-0.0381,-0.0249,-0.0134,0.0034,0.0079,0.0193,0.0226,0.016,0.0179,0.0186,0.0175,0.0286,0.0286,0.0286,0.0286,0.0286,0,-0.0649,-0.0677,-0.0716,-0.0735,-0.0745,-0.0749,-0.0746,-0.0694,-0.0658,-0.0542,-0.0507,-0.0368,-0.028,-0.0062,0.005,0.021,0.0221,0.0274,0.0231,0.0187,0.0201,0.019,0.018,0.0286,0.0286,0.0286,0.0286,0,-0.0672,-0.0694,-0.072,-0.0768,-0.0784,-0.079,-0.0776,-0.075,-0.0671,-0.062,-0.0484,-0.0362,-0.0213,-0.0061,0.0064,0.0173,0.0236,0.0275,0.0275,0.0235,0.0189,0.02,0.019,0.0287,0.0287,0.0287,0.0287,0,-0.0681,-0.0705,-0.0748,-0.0779,-0.0812,-0.0814,-0.0804,-0.0743,-0.0696,-0.0562,-0.052,-0.0351,-0.0246,-0.0078,0.0036,0.014,0.0157,0.0174,0.018,0.0181,0.0105,0.0028,0.0108,0,0,0,0,0,-0.0681,-0.071,-0.075,-0.0784,-0.0817,-0.0832,-0.0812,-0.0786,-0.0713,-0.0622,-0.0564,-0.0424,-0.0225,-0.0128,-0.0028,0.0014,0.0154,0.0131,0.0171,0.0289,0.0288,0.0213,0,0,0,0,0,0,-0.0682,-0.0728,-0.0747,-0.0779,-0.0805,-0.0828,-0.082,-0.0774,-0.0707,-0.0623,-0.0511,-0.0426,-0.0232,-0.0287,-0.0035,-0.0,0.0033,0.0234,0.0236,0.0289,0.0289,0.0288,0.0211,0,0,0,0,0]}]]